Location: Unspecified
(41.5000°N, 0.0000°E)
Time: 09:42:20
(UTC+00:00)

Tiros 1 - Visible Passes

Search period start: 24 June 2019 00:00
Search period end: 04 July 2019 00:00
Orbit: 631 x 664 km, 48.4° (Epoch: 23 June)

Date Brightness Start Highest point End Pass type
(mag) Time Alt. Az. Time Alt. Az. Time Alt. Az.
24 Jun 8.3 00:16:27 10° W 00:20:56 42° NNW 00:25:22 10° ENE visible
24 Jun 8.7 01:59:31 10° WNW 02:03:50 36° N 02:08:08 10° ENE visible
24 Jun 7.4 03:41:51 10° WNW 03:46:30 75° NNE 03:51:08 10° ESE visible
24 Jun 7.8 21:18:26 10° SSW 21:22:36 31° SE 21:26:46 10° ENE visible
24 Jun 7.4 22:59:55 10° WSW 23:04:37 66° NNW 23:09:16 10° ENE visible
25 Jun 8.7 00:43:02 10° WNW 00:47:21 35° N 00:51:38 10° ENE visible
25 Jun 8.2 02:25:46 10° WNW 02:30:15 46° NNE 02:34:42 10° E visible
25 Jun 7.0 21:43:50 10° SW 21:48:31 65° SE 21:53:10 10° ENE visible
25 Jun 8.2 23:26:24 10° W 23:30:55 44° NNW 23:35:23 10° ENE visible
26 Jun 8.7 01:09:30 10° WNW 01:13:49 36° N 01:18:06 10° ENE visible
26 Jun 7.4 02:51:52 10° WNW 02:56:32 71° NNE 03:01:08 10° ESE visible
26 Jun 7.9 20:28:34 10° SSW 20:32:39 29° SE 20:36:43 10° ENE visible
26 Jun 7.4 22:09:53 10° WSW 22:14:37 70° NNW 22:19:17 10° ENE visible
26 Jun 8.7 23:52:59 10° WNW 23:57:20 36° N 00:01:37 10° ENE visible
27 Jun 8.3 01:35:45 10° WNW 01:40:14 44° NNE 01:44:41 10° E visible
27 Jun 7.1 03:18:00 10° WNW 03:22:37 63° SSW 03:27:10 10° SE visible
27 Jun 7.1 20:53:51 10° SW 20:58:32 61° SE 21:03:10 10° ENE visible
27 Jun 8.2 22:36:21 10° W 22:40:53 45° NNW 22:45:24 10° ENE visible
28 Jun 8.7 00:19:28 10° WNW 00:23:48 35° N 00:28:05 10° ENE visible
28 Jun 7.4 02:01:52 10° WNW 02:06:32 67° NNE 02:11:08 10° ESE visible
28 Jun 7.9 03:44:26 10° WNW 03:48:29 30° SW 03:52:30 10° SSE visible
28 Jun 7.3 21:19:52 10° WSW 21:24:36 74° NNW 21:29:19 10° ENE visible
28 Jun 8.7 23:02:56 10° WNW 23:07:18 36° N 23:11:37 10° ENE visible
29 Jun 8.3 00:45:45 10° WNW 00:50:13 43° NNE 00:54:39 10° E visible
29 Jun 7.0 02:28:00 10° WNW 02:32:38 68° SSW 02:37:13 10° SE visible
29 Jun 7.3 20:03:54 10° SW 20:08:33 57° SE 20:13:11 10° ENE visible
29 Jun 8.2 21:46:17 10° W 21:50:52 47° NNW 21:55:25 10° ENE visible
29 Jun 8.7 23:29:25 10° WNW 23:33:46 35° N 23:38:03 10° ENE visible
30 Jun 7.5 01:11:52 10° WNW 01:16:31 64° NNE 01:21:07 10° ESE visible
30 Jun 7.7 02:54:22 10° WNW 02:58:32 32° SW 03:02:39 10° SSE visible
30 Jun 7.3 20:29:50 10° WSW 20:34:36 78° NNW 20:39:20 10° ENE visible
30 Jun 8.7 22:12:52 10° WNW 22:17:16 37° N 22:21:38 10° ENE visible
30 Jun 8.3 23:55:44 10° WNW 00:00:12 42° NNE 00:04:38 10° E visible
01 Jul 6.9 01:37:59 10° WNW 01:42:40 73° SSW 01:47:16 10° SE visible
01 Jul 8.6 03:21:38 10° W 03:24:14 15° SW 03:26:48 10° SSW visible
01 Jul 8.2 20:56:14 10° W 21:00:51 49° NNW 21:05:26 10° ENE visible
01 Jul 8.7 22:39:23 10° WNW 22:43:44 35° N 22:48:02 10° ENE visible
02 Jul 7.5 00:21:52 10° WNW 00:26:31 61° NNE 00:28:40 30° E visible
02 Jul 8.7 02:04:20 10° WNW 02:06:08 21° W 02:06:08 21° W visible
02 Jul 8.6 21:22:49 10° WNW 21:27:14 37° N 21:31:38 10° ENE visible
02 Jul 8.3 23:05:43 10° WNW 23:10:10 41° NNE 23:14:04 13° E visible
03 Jul 7.5 00:47:59 10° WNW 00:51:38 53° WNW 00:51:38 53° WNW visible
03 Jul 8.1 20:06:11 10° W 20:10:50 51° NNW 20:15:27 10° ENE visible
03 Jul 8.7 21:49:20 10° WNW 21:53:42 35° N 21:58:02 10° ENE visible
03 Jul 7.6 23:31:52 10° WNW 23:36:32 58° NNE 23:37:43 43° ENE visible
